Japanese version Home page |
Updated on July 18, 2024 |
|
Orbital ElementsEpoch 2024 Mar. 31.0 TT = JDT 2460400.5 T 2024 Apr. 20.60073 TT Rudenko q 2.0245987 (2000.0) P Q n 0.10146275 Peri. 54.66778 -0.31889686 -0.93734573 a 4.5526575 Node 54.53010 +0.80405617 -0.34593405 e 0.5552930 Incl. 9.92075 +0.50179525 -0.04138383 P 9.71 >From 3441 observations 2013 Sept. 24-2024 Mar. 19, mean residual 0".7. Nongravitational parameters A1 = +2.57, A2 = +1.1077.
|
Finding Charts
|
Magnitudes Graphm1 = 8.0 + 5 log d + 14.0 log r
|
The orbital elements are published on M.P.E.C. 2024-F34.
|